EW6709 Weather Reports


time (UTC)temp
C
wind
direction
speed
KPH
gust
KPH
rain 1hr
cm
rain 24hr
cm
rain mn
cm
humidity
%
barometer
mb
20260510201542 28 263 0.0 6.4 0.00 0.00 0.00 37 1014.3
20260510200046 27 248 1.6 12.9 0.00 0.00 0.00 39 1014.4
20260510194539 27 271 0.0 11.3 0.00 0.00 0.00 38 1014.3
20260510193038 27 78 0.0 17.7 0.00 0.00 0.00 39 1014.5
20260510191538 27 293 0.0 1.6 0.00 0.00 0.00 39 1014.6
20260510190046 27 55 0.0 6.4 0.00 0.00 0.00 39 1014.7
20260510184536 27 36 0.0 11.3 0.00 0.00 0.00 37 1014.8
20260510183033 27 241 0.0 4.8 0.00 0.00 0.00 39 1015.1
20260510181533 27 225 1.6 16.1 0.00 0.00 0.00 39 1015.2
20260510180032 27 267 0.0 3.2 0.00 0.00 0.00 39 1015.3
20260510174528 27 54 0.0 1.6 0.00 0.00 0.00 46 1015.4
20260510173026 26 150 0.0 3.2 0.00 0.00 0.00 42 1015.5
20260510171532 26 229 0.0 3.2 0.00 0.00 0.00 45 1015.6
20260510170022 26 88 1.6 8.0 0.00 0.00 0.00 44 1015.5
20260510164520 26 227 0.0 3.2 0.00 0.00 0.00 48 1015.6
20260510163017 25 224 0.0 4.8 0.00 0.00 0.00 48 1015.7
20260510161516 25 245 0.0 4.8 0.00 0.00 0.00 45 1015.9
20260510160016 25 195 0.0 1.6 0.00 0.00 0.00 56 1015.9
20260510154511 24 242 0.0 3.2 0.00 0.00 0.00 59 1016.1
20260510153007 24 242 0.0 4.8 0.00 0.00 0.00 61 1016.4
20260510151506 23 228 0.0 3.2 0.00 0.00 0.00 64 1016.2
20260510150100 23 165 0.0 3.2 0.00 0.00 0.00 67 1016.1
20260510144607 22 74 0.0 3.2 0.00 0.00 0.00 67 1016.1
20260510143054 22 236 0.0 4.8 0.00 0.00 0.00 71 1016.1
20260510141550 21 59 0.0 3.2 0.00 0.00 0.00 74 1016.1
20260510140046 21 232 0.0 3.2 0.00 0.00 0.00 78 1016.2
20260510134543 20 220 0.0 0.0 0.00 0.03 0.00 82 1016.3
20260510133038 18 230 0.0 3.2 0.00 0.03 0.00 83 1016.1
20260510131534 18 275 0.0 0.0 0.00 0.03 0.00 81 1016.2
20260510130031 18 82 0.0 0.0 0.00 0.03 0.00 80 1015.8
20260510124526 17 334 0.0 0.0 0.00 0.03 0.00 80 1015.6
20260510123022 17 334 0.0 0.0 0.00 0.03 0.00 80 1015.7
20260510121517 16 335 0.0 0.0 0.00 0.03 0.00 80 1015.4
20260510120014 16 128 0.0 0.0 0.00 0.03 0.00 81 1015.3
20260510114511 15 128 0.0 0.0 0.00 0.03 0.00 81 1015.2
20260510113008 15 128 0.0 0.0 0.00 0.03 0.00 81 1015.0
20260510111504 14 325 0.0 0.0 0.00 0.03 0.00 81 1014.7
20260510110001 14 325 0.0 0.0 0.00 0.03 0.00 82 1014.5
20260510104558 14 325 0.0 0.0 0.00 0.03 0.00 82 1014.3
20260510103056 14 325 0.0 0.0 0.00 0.03 0.00 82 1014.2
20260510101602 14 325 0.0 0.0 0.00 0.03 0.00 82 1014.0
20260510100054 14 163 0.0 0.0 0.00 0.03 0.00 82 1013.7
20260510094552 14 226 0.0 0.0 0.00 0.03 0.00 82 1013.5
20260510093046 14 226 0.0 0.0 0.00 0.03 0.00 82 1013.3
20260510091545 14 226 0.0 0.0 0.00 0.03 0.00 82 1013.1
20260510090044 14 226 0.0 0.0 0.00 0.03 0.00 82 1013.0
20260510084552 15 226 0.0 0.0 0.00 0.03 0.00 82 1012.9
20260510083042 15 226 0.0 0.0 0.00 0.03 0.00 82 1012.9
20260510081543 15 226 0.0 0.0 0.00 0.03 0.00 82 1012.7
20260510080055 15 226 0.0 0.0 0.00 0.03 0.00 82 1012.7
20260510074540 15 226 0.0 0.0 0.00 0.03 0.00 82 1012.8
20260510073047 15 226 0.0 0.0 0.00 0.03 0.00 82 1012.6
20260510071538 15 226 0.0 0.0 0.00 0.03 0.00 82 1012.5
20260510070046 15 226 0.0 0.0 0.00 0.03 0.00 82 1012.4
20260510064543 15 226 0.0 0.0 0.00 0.03 0.00 82 1012.6
20260510063038 15 226 0.0 0.0 0.00 0.03 0.00 82 1012.6
20260510061536 15 226 0.0 0.0 0.00 0.03 0.00 82 1012.5
20260510060040 15 226 0.0 0.0 0.00 0.03 0.00 82 1012.7
20260510054531 15 226 0.0 0.0 0.00 0.03 0.00 82 1012.7
20260510053030 15 226 0.0 0.0 0.00 0.03 0.00 82 1012.8
20260510051527 15 226 0.0 0.0 0.00 0.03 0.00 82 1012.9
20260510050034 15 226 0.0 0.0 0.00 0.03 0.00 82 1013.0
20260510044525 15 226 0.0 0.0 0.00 0.03 0.00 83 1013.1
20260510043022 15 226 0.0 0.0 0.00 0.03 0.00 83 1013.1
20260510041523 15 226 0.0 0.0 0.00 0.03 0.00 83 1013.1
20260510040020 15 226 0.0 0.0 0.00 0.03 0.00 83 1013.1
20260510034519 15 226 0.0 0.0 0.00 0.03 0.03 83 1012.9
20260510033018 15 226 0.0 0.0 0.00 0.03 0.03 83 1012.9
20260510031523 16 226 0.0 0.0 0.00 0.03 0.03 83 1012.8
20260510030016 16 226 0.0 0.0 0.00 0.03 0.03 83 1012.8
20260510024518 16 226 0.0 0.0 0.00 0.03 0.03 83 1012.7
20260510023017 16 226 0.0 0.0 0.00 0.03 0.03 83 1012.6
20260510021538 16 226 0.0 0.0 0.00 0.03 0.03 83 1012.6
20260510020015 17 226 0.0 0.0 0.00 0.03 0.03 83 1012.4
20260510014529 17 226 0.0 0.0 0.00 0.03 0.03 83 1012.4
20260510013013 17 226 0.0 0.0 0.00 0.03 0.03 83 1012.0
20260510011516 17 226 0.0 0.0 0.00 0.03 0.03 83 1011.8
20260510010021 18 226 0.0 0.0 0.00 0.03 0.03 83 1011.6
20260510004512 18 226 0.0 0.0 0.00 0.03 0.03 82 1011.4
20260510003012 19 226 0.0 0.0 0.00 0.03 0.03 82 1011.3
20260510001511 20 226 0.0 0.0 0.00 0.03 0.03 81 1011.3
20260510000011 20 227 0.0 0.0 0.00 0.03 0.03 80 1011.3
20260509234511 21 234 0.0 0.0 0.00 0.03 0.03 79 1011.2
20260509233010 21 234 0.0 0.0 0.00 0.03 0.03 77 1011.0
20260509231508 21 234 0.0 1.6 0.00 0.03 0.03 75 1010.8
20260509230021 21 232 0.0 1.6 0.00 0.03 0.03 75 1010.7
20260509224508 22 227 0.0 1.6 0.00 0.03 0.03 74 1010.6
20260509223008 22 162 0.0 3.2 0.00 0.03 0.03 73 1010.5
20260509221507 22 242 0.0 3.2 0.00 0.03 0.03 74 1010.7
20260509220007 21 261 0.0 1.6 0.00 0.03 0.03 73 1010.7
20260509214506 21 240 0.0 3.2 0.00 0.03 0.03 73 1010.6
20260509213007 22 261 0.0 3.2 0.00 0.03 0.03 74 1010.6
20260509211504 22 260 0.0 6.4 0.00 0.03 0.03 73 1010.6
20260509210004 22 263 0.0 4.8 0.00 0.03 0.03 71 1010.4
20260509204502 21 265 0.0 1.6 0.00 0.03 0.03 74 1010.4
20260509203101 21 255 0.0 1.6 0.00 0.03 0.03 74 1010.5